Volver al catálogo

MSG 1 DEB

BAFFLE COVER

LostMEO
NORAD 39999·DEBRIS·🇪🇺 EU

Lanzado Aug 28, 2002 desde Guiana Space Centre

Loading…

Próximos Pases (próximas 24 horas)

TLE

ObsoletoSource: Space-Track

Época: May 18, 2026, 06:03 UTC

1 39999U 02040F   26138.25251892 -.00000311  00000-0  00000-0 0  9995
2 39999  12.1644  14.4055 0104131 105.3382 113.6615  1.01964517 41787

Sigue MSG 1 DEB en tiempo real con AllMySat

Download on the App Store